• In Spain
  • List of Countries
  • For 7 days
  • Water Temperature
  • Satellite Maps
  • Weather Map
  • Weather Widgets
  • user-avatar
    Login

    Hourly Weather Uige

    Today, 24 September, Sunday

    Time Temperature Precipitation Wind Pressure Humidity
    00:00 +24°C° 0 mm 1 mps 692 mmHg 78%
    01:00 +23°C° 0 mm 1 mps 692 mmHg 82%
    02:00 +22°C° 0 mm 1 mps 692 mmHg 84%
    03:00 +22°C° 0 mm 1 mps 692 mmHg 87%
    04:00 +22°C° 0 mm 1 mps 692 mmHg 89%
    05:00 +22°C° 0 mm 1 mps 692 mmHg 87%
    06:00 +22°C° 0 mm 1 mps 693 mmHg 85%
    07:00 +23°C° 0 mm 1 mps 693 mmHg 81%
    08:00 +25°C° 0 mm 1 mps 693 mmHg 72%
    09:00 +27°C° 0 mm 1 mps 694 mmHg 63%
    10:00 +30°C° 0 mm 1 mps 694 mmHg 54%
    11:00 +32°C° 0.1 mm 1 mps 694 mmHg 47%
    12:00 +34°C° 0.1 mm 1 mps 693 mmHg 41%
    13:00 +36°C° 0.1 mm 1 mps 693 mmHg 35%
    14:00 +34°C° 0.2 mm 1 mps 692 mmHg 40%
    15:00 +32°C° 0.2 mm 1 mps 691 mmHg 45%
    16:00 +31°C° 0.2 mm 1 mps 690 mmHg 49%
    17:00 +30°C° 0 mm 1 mps 690 mmHg 53%
    18:00 +29°C° 0 mm 2 mps 690 mmHg 57%
    19:00 +28°C° 0 mm 2 mps 690 mmHg 60%
    20:00 +27°C° 0.1 mm 2 mps 691 mmHg 65%
    21:00 +26°C° 0.1 mm 2 mps 691 mmHg 69%
    22:00 +25°C° 0.1 mm 2 mps 692 mmHg 74%
    23:00 +24°C° 0 mm 2 mps 692 mmHg 78%

    Tomorrow, 25 September, Monday

    Time Temperature Precipitation Wind Pressure Humidity
    00:00 +24°C° 0 mm 2 mps 691 mmHg 82%
    01:00 +23°C° 0 mm 1 mps 691 mmHg 86%
    02:00 +21°C° 0 mm 2 mps 691 mmHg 86%
    03:00 +21°C° 0 mm 2 mps 691 mmHg 87%
    04:00 +21°C° 0 mm 2 mps 690 mmHg 88%
    05:00 +21°C° 0 mm 2 mps 691 mmHg 86%
    06:00 +21°C° 0 mm 2 mps 691 mmHg 84%
    07:00 +21°C° 0 mm 2 mps 691 mmHg 82%
    08:00 +25°C° 0 mm 2 mps 692 mmHg 72%
    09:00 +27°C° 0 mm 2 mps 693 mmHg 62%
    10:00 +29°C° 0 mm 2 mps 693 mmHg 52%
    11:00 +31°C° 0 mm 2 mps 693 mmHg 46%
    12:00 +34°C° 0 mm 2 mps 692 mmHg 41%
    13:00 +35°C° 0 mm 2 mps 691 mmHg 35%
    14:00 +35°C° 0 mm 2 mps 691 mmHg 37%
    15:00 +34°C° 0 mm 2 mps 690 mmHg 38%
    16:00 +32°C° 0 mm 2 mps 689 mmHg 40%
    17:00 +31°C° 0.2 mm 2 mps 690 mmHg 45%
    18:00 +29°C° 0.2 mm 2 mps 690 mmHg 51%
    19:00 +27°C° 0.2 mm 2 mps 690 mmHg 57%
    20:00 +27°C° 0 mm 2 mps 690 mmHg 61%
    21:00 +26°C° 0 mm 2 mps 691 mmHg 66%
    22:00 +25°C° 0 mm 2 mps 691 mmHg 70%
    23:00 +24°C° 0 mm 2 mps 691 mmHg 74%

    Day after tomorrow, 26 September, Tuesday

    Time Temperature Precipitation Wind Pressure Humidity
    00:00 +23°C° 0 mm 2 mps 691 mmHg 79%
    01:00 +22°C° 0 mm 1 mps 691 mmHg 83%
    02:00 +21°C° 0 mm 2 mps 690 mmHg 84%
    03:00 +21°C° 0 mm 2 mps 690 mmHg 86%
    04:00 +20°C° 0 mm 2 mps 690 mmHg 87%
    05:00 +21°C° 0 mm 2 mps 690 mmHg 85%
    06:00 +21°C° 0 mm 2 mps 690 mmHg 82%
    07:00 +21°C° 0 mm 2 mps 691 mmHg 80%
    08:00 +24°C° 0 mm 2 mps 691 mmHg 70%
    09:00 +27°C° 0 mm 2 mps 692 mmHg 60%
    10:00 +29°C° 0 mm 2 mps 693 mmHg 50%
    11:00 +31°C° 0 mm 2 mps 692 mmHg 44%
    12:00 +34°C° 0 mm 2 mps 691 mmHg 38%
    13:00 +36°C° 0 mm 2 mps 690 mmHg 33%
    14:00 +35°C° 0 mm 2 mps 690 mmHg 34%
    15:00 +34°C° 0 mm 2 mps 689 mmHg 35%
    16:00 +34°C° 0 mm 2 mps 688 mmHg 37%
    17:00 +31°C° 0 mm 2 mps 689 mmHg 41%
    18:00 +30°C° 0 mm 2 mps 689 mmHg 46%
    19:00 +28°C° 0 mm 2 mps 690 mmHg 50%
    20:00 +27°C° 0 mm 2 mps 690 mmHg 57%
    21:00 +26°C° 0 mm 2 mps 691 mmHg 64%
    22:00 +24°C° 0 mm 2 mps 691 mmHg 71%
    23:00 +24°C° 0 mm 2 mps 691 mmHg 75%

    27 September, Wednesday

    Time Temperature Precipitation Wind Pressure Humidity
    00:00 +23°C° 0 mm 2 mps 691 mmHg 79%
    01:00 +21°C° 0 mm 2 mps 690 mmHg 84%
    02:00 +21°C° 0 mm 2 mps 690 mmHg 83%
    03:00 +21°C° 0 mm 2 mps 690 mmHg 83%
    04:00 +21°C° 0 mm 2 mps 690 mmHg 82%
    05:00 +21°C° 0.1 mm 2 mps 691 mmHg 81%
    06:00 +21°C° 0.1 mm 2 mps 691 mmHg 79%
    07:00 +21°C° 0.1 mm 2 mps 692 mmHg 78%
    08:00 +24°C° 0 mm 2 mps 692 mmHg 68%
    09:00 +26°C° 0 mm 2 mps 693 mmHg 59%
    10:00 +29°C° 0 mm 2 mps 693 mmHg 49%
    11:00 +31°C° 0 mm 2 mps 692 mmHg 43%
    12:00 +34°C° 0 mm 2 mps 691 mmHg 38%
    13:00 +36°C° 0 mm 2 mps 691 mmHg 32%
    14:00 +35°C° 0 mm 2 mps 690 mmHg 33%
    15:00 +35°C° 0 mm 2 mps 690 mmHg 34%
    16:00 +34°C° 0 mm 2 mps 689 mmHg 34%
    17:00 +32°C° 0 mm 2 mps 690 mmHg 39%
    18:00 +30°C° 0 mm 2 mps 690 mmHg 43%
    19:00 +29°C° 0 mm 2 mps 691 mmHg 47%
    20:00 +27°C° 0 mm 2 mps 691 mmHg 53%
    21:00 +26°C° 0 mm 2 mps 691 mmHg 60%
    22:00 +25°C° 0 mm 2 mps 691 mmHg 67%
    23:00 +24°C° 0 mm 2 mps 691 mmHg 71%

    28 September, Thursday

    Time Temperature Precipitation Wind Pressure Humidity
    00:00 +23°C° 0 mm 2 mps 691 mmHg 76%
    01:00 +21°C° 0 mm 2 mps 691 mmHg 80%
    02:00 +21°C° 0 mm 2 mps 691 mmHg 82%
    03:00 +22°C° 0 mm 1 mps 691 mmHg 84%
    04:00 +21°C° 0 mm 1 mps 691 mmHg 85%
    05:00 +21°C° 0 mm 1 mps 692 mmHg 83%
    06:00 +22°C° 0 mm 1 mps 692 mmHg 80%
    07:00 +22°C° 0 mm 1 mps 693 mmHg 77%
    08:00 +26°C° 0.1 mm 1 mps 694 mmHg 64%
    09:00 +29°C° 0.1 mm 1 mps 694 mmHg 50%
    10:00 +33°C° 0.1 mm 1 mps 695 mmHg 37%
    11:00 +33°C° 0 mm 1 mps 694 mmHg 36%
    12:00 +33°C° 0 mm 1 mps 693 mmHg 34%
    13:00 +34°C° 0 mm 1 mps 692 mmHg 33%
    14:00 +33°C° 0 mm 1 mps 692 mmHg 33%
    15:00 +33°C° 0 mm 1 mps 691 mmHg 33%
    16:00 +33°C° 0 mm 1 mps 691 mmHg 33%
    17:00 +31°C° 0 mm 1 mps 691 mmHg 37%
    18:00 +29°C° 0 mm 1 mps 691 mmHg 41%
    19:00 +28°C° 0 mm 1 mps 691 mmHg 45%
    20:00 +27°C° 0 mm 1 mps 691 mmHg 51%
    21:00 +26°C° 0 mm 2 mps 692 mmHg 56%
    22:00 +25°C° 0 mm 2 mps 692 mmHg 62%
    23:00 +24°C° 0 mm 2 mps 692 mmHg 68%

    29 September, Friday

    Time Temperature Precipitation Wind Pressure Humidity
    00:00 +23°C° 0 mm 2 mps 691 mmHg 73%
    01:00 +23°C° 0 mm 2 mps 691 mmHg 79%
    02:00 +21°C° 0 mm 2 mps 691 mmHg 81%
    03:00 +21°C° 0 mm 2 mps 691 mmHg 82%
    04:00 +21°C° 0 mm 1 mps 691 mmHg 84%
    05:00 +22°C° 0 mm 1 mps 691 mmHg 82%
    06:00 +22°C° 0 mm 1 mps 692 mmHg 80%
    07:00 +22°C° 0 mm 1 mps 692 mmHg 78%
    08:00 +26°C° 0 mm 1 mps 693 mmHg 66%
    09:00 +29°C° 0 mm 1 mps 693 mmHg 53%
    10:00 +32°C° 0 mm 1 mps 693 mmHg 41%
    11:00 +34°C° 0 mm 1 mps 693 mmHg 36%
    12:00 +36°C° 0 mm 1 mps 692 mmHg 31%
    13:00 +40°C° 0 mm 1 mps 691 mmHg 26%
    14:00 +37°C° 0 mm 1 mps 691 mmHg 29%
    15:00 +35°C° 0 mm 1 mps 690 mmHg 32%
    16:00 +33°C° 0 mm 1 mps 689 mmHg 35%
    17:00 +31°C° 0 mm 1 mps 690 mmHg 40%
    18:00 +30°C° 0 mm 1 mps 690 mmHg 45%
    19:00 +28°C° 0 mm 1 mps 690 mmHg 50%
    20:00 +27°C° 0 mm 1 mps 691 mmHg 54%
    21:00 +27°C° 0 mm 1 mps 691 mmHg 58%
    22:00 +26°C° 0 mm 1 mps 691 mmHg 63%
    23:00 +25°C° 0 mm 2 mps 691 mmHg 67%
    Show more